TimeCDT,TemperatureF,Dew PointF,Humidity,Sea Level PressureIn,VisibilityMPH,Wind Direction,Wind SpeedMPH,Gust SpeedMPH,PrecipitationIn,Events,Conditions,WindDirDegrees,DateUTC
12:15 AM,59.0,57.2,94,29.81,1.5,Calm,Calm,-,N/A,,Overcast,0,2012-10-24 05:15:00
12:35 AM,59.0,57.2,94,29.82,1.2,Calm,Calm,-,N/A,,Overcast,0,2012-10-24 05:35:00
12:55 AM,59.0,55.4,88,29.82,1.0,Calm,Calm,-,N/A,,Overcast,0,2012-10-24 05:55:00
1:15 AM,59.0,57.2,94,29.82,1.0,Calm,Calm,-,N/A,,Overcast,0,2012-10-24 06:15:00
1:35 AM,59.0,57.2,94,29.82,1.0,Calm,Calm,-,N/A,,Overcast,0,2012-10-24 06:35:00
1:55 AM,59.0,55.4,88,29.82,0.8,Calm,Calm,-,N/A,,Overcast,0,2012-10-24 06:55:00
2:15 AM,59.0,57.2,94,29.82,1.0,Calm,Calm,-,N/A,,Overcast,0,2012-10-24 07:15:00
2:35 AM,59.0,57.2,94,29.81,0.8,Calm,Calm,-,N/A,,Overcast,0,2012-10-24 07:35:00
2:55 AM,59.0,57.2,94,29.82,0.8,Calm,Calm,-,N/A,,Overcast,0,2012-10-24 07:55:00
3:15 AM,59.0,57.2,94,29.81,0.8,Calm,Calm,-,N/A,,Overcast,0,2012-10-24 08:15:00
3:35 AM,59.0,57.2,94,29.82,0.5,Calm,Calm,-,N/A,Fog,Fog,0,2012-10-24 08:35:00
3:55 AM,59.0,57.2,94,29.82,0.5,Calm,Calm,-,N/A,Fog,Fog,0,2012-10-24 08:55:00
4:15 AM,59.0,57.2,94,29.82,0.2,Calm,Calm,-,N/A,Fog,Fog,0,2012-10-24 09:15:00
4:35 AM,59.0,57.2,94,29.82,0.2,Calm,Calm,-,N/A,Fog,Fog,0,2012-10-24 09:35:00
4:55 AM,59.0,55.4,88,29.82,0.2,Calm,Calm,-,N/A,Fog,Fog,0,2012-10-24 09:55:00
5:15 AM,59.0,57.2,94,29.83,0.2,Calm,Calm,-,N/A,Fog,Fog,0,2012-10-24 10:15:00
5:35 AM,59.0,57.2,94,29.83,0.2,Calm,Calm,-,N/A,Fog,Fog,0,2012-10-24 10:35:00
5:55 AM,59.0,57.2,94,29.83,0.5,West,3.5,-,N/A,Fog,Fog,280,2012-10-24 10:55:00
6:15 AM,59.0,57.2,94,29.83,1.0,Calm,Calm,-,N/A,,Overcast,0,2012-10-24 11:15:00
6:35 AM,57.2,55.4,94,29.85,1.2,Calm,Calm,-,N/A,,Overcast,0,2012-10-24 11:35:00
6:55 AM,57.2,55.4,94,29.85,1.5,Calm,Calm,-,N/A,,Overcast,0,2012-10-24 11:55:00
7:15 AM,57.2,55.4,94,29.85,1.2,Calm,Calm,-,N/A,,Overcast,0,2012-10-24 12:15:00
7:35 AM,57.2,55.4,94,29.86,1.5,Calm,Calm,-,N/A,,Overcast,0,2012-10-24 12:35:00
7:55 AM,57.2,55.4,94,29.85,1.2,Calm,Calm,-,N/A,,Overcast,0,2012-10-24 12:55:00
8:15 AM,57.2,55.4,94,29.86,1.5,Calm,Calm,-,N/A,,Overcast,0,2012-10-24 13:15:00
8:55 AM,57.2,55.4,94,29.86,1.0,Calm,Calm,-,N/A,,Overcast,0,2012-10-24 13:55:00
9:15 AM,57.2,55.4,94,29.87,1.2,Calm,Calm,-,N/A,,Overcast,0,2012-10-24 14:15:00
9:35 AM,57.2,55.4,94,29.86,1.2,Calm,Calm,-,N/A,Rain,Heavy Rain,0,2012-10-24 14:35:00
9:55 AM,57.2,55.4,94,29.86,1.5,North,3.5,-,0.01,,Light Drizzle,10,2012-10-24 14:55:00
10:15 AM,59.0,55.4,88,29.85,2.0,NNE,3.5,-,N/A,,Overcast,20,2012-10-24 15:15:00
10:35 AM,59.0,55.4,88,29.85,2.5,North,4.6,-,N/A,,Overcast,10,2012-10-24 15:35:00
11:15 AM,59.0,57.2,94,29.84,2.5,NE,4.6,-,N/A,,Overcast,40,2012-10-24 16:15:00
11:35 AM,59.0,57.2,94,29.84,2.5,North,4.6,-,N/A,,Overcast,360,2012-10-24 16:35:00
11:55 AM,59.0,57.2,94,29.84,2.0,NNW,4.6,-,N/A,,Overcast,340,2012-10-24 16:55:00
12:15 PM,59.0,55.4,88,29.82,1.2,North,6.9,-,N/A,,Drizzle,360,2012-10-24 17:15:00
12:35 PM,59.0,55.4,88,29.81,1.2,North,6.9,-,N/A,,Light Drizzle,360,2012-10-24 17:35:00
12:55 PM,59.0,55.4,88,29.82,1.2,North,5.8,-,N/A,,Light Drizzle,10,2012-10-24 17:55:00
1:35 PM,59.0,55.4,88,29.79,0.8,NNE,8.1,-,N/A,,Overcast,20,2012-10-24 18:35:00
1:55 PM,59.0,55.4,88,29.79,1.0,NNE,5.8,-,N/A,Rain,Light Rain,20,2012-10-24 18:55:00
2:15 PM,59.0,55.4,88,29.78,1.5,North,6.9,-,N/A,Rain,Light Rain,10,2012-10-24 19:15:00
2:35 PM,59.0,57.2,94,29.77,1.5,NNE,6.9,-,0.01,Rain,Rain,20,2012-10-24 19:35:00
2:55 PM,59.0,57.2,94,29.77,2.0,NNE,8.1,-,0.01,,Overcast,20,2012-10-24 19:55:00
3:15 PM,59.0,57.2,94,29.76,1.5,NNE,5.8,-,N/A,,Drizzle,20,2012-10-24 20:15:00
3:35 PM,59.0,57.2,94,29.75,1.5,North,5.8,-,N/A,,Drizzle,10,2012-10-24 20:35:00
3:55 PM,59.0,57.2,94,29.74,1.8,North,6.9,-,N/A,,Overcast,10,2012-10-24 20:55:00
4:15 PM,59.0,57.2,94,29.74,1.8,North,5.8,-,N/A,,Overcast,360,2012-10-24 21:15:00
4:55 PM,59.0,57.2,94,29.72,1.2,North,5.8,-,N/A,,Overcast,10,2012-10-24 21:55:00
5:35 PM,59.0,55.4,88,29.69,1.2,North,8.1,-,0.01,Rain,Rain,360,2012-10-24 22:35:00
5:55 PM,57.2,55.4,94,29.69,1.8,Calm,Calm,-,0.08,Rain-Thunderstorm,Heavy Thunderstorms and Rain,0,2012-10-24 22:55:00
6:15 PM,55.4,55.4,100,29.70,0.2,WNW,10.4,18.4,0.71,Rain-Thunderstorm,Heavy Thunderstorms and Rain,300,2012-10-24 23:15:00
6:35 PM,53.6,53.6,100,29.71,7.0,NW,10.4,18.4,0.79,Rain-Thunderstorm,Light Thunderstorms and Rain,320,2012-10-24 23:35:00
6:55 PM,53.6,51.8,94,29.71,10.0,NNW,9.2,16.1,0.79,Rain-Thunderstorm,Light Thunderstorms and Rain,330,2012-10-24 23:55:00
7:35 PM,53.6,51.8,94,29.74,10.0,NNW,8.1,-,0.01,Rain-Thunderstorm,Rain,340,2012-10-25 00:35:00
8:15 PM,53.6,51.8,94,29.75,5.0,North,11.5,17.3,N/A,,Light Drizzle,350,2012-10-25 01:15:00
8:35 PM,53.6,51.8,94,29.76,10.0,NW,5.8,-,N/A,,Overcast,320,2012-10-25 01:35:00
8:55 PM,53.6,51.8,94,29.75,10.0,NNW,10.4,-,N/A,,Overcast,340,2012-10-25 01:55:00
9:15 PM,53.6,51.8,94,29.75,10.0,North,11.5,-,N/A,,Overcast,350,2012-10-25 02:15:00
9:55 PM,53.6,51.8,94,29.75,10.0,North,10.4,16.1,N/A,,Overcast,350,2012-10-25 02:55:00
10:15 PM,53.6,50.0,88,29.74,10.0,North,10.4,18.4,N/A,,Overcast,350,2012-10-25 03:15:00
10:35 PM,53.6,50.0,88,29.75,10.0,North,13.8,19.6,N/A,,Overcast,10,2012-10-25 03:35:00
10:55 PM,53.6,50.0,88,29.74,10.0,North,10.4,16.1,N/A,,Overcast,360,2012-10-25 03:55:00
11:15 PM,53.6,50.0,88,29.73,10.0,North,10.4,16.1,N/A,,Overcast,10,2012-10-25 04:15:00
11:35 PM,53.6,50.0,88,29.74,10.0,North,8.1,-,N/A,,Overcast,360,2012-10-25 04:35:00
11:55 PM,51.8,50.0,94,29.73,10.0,North,10.4,-,N/A,,Overcast,360,2012-10-25 04:55:00